,,Stat6,,Stat2,,Stat8,,Stat9,,Stat10,,Wind1,,Wind1
time,status,PA1M_AVG,status,PR1M_SUM,status,RH1M_AVG,status,SR1M_AVG,status,TA1M_AVG,status,W1dAve1m,status,W1sAve1m
2009-05-04, 00:00:00,VALID,919.447,VALID,0,VALID,100,VALID,0.0169808,VALID,20.6474,VALID,34,VALID,0
2009-05-04, 00:01:00,VALID,919.453,VALID,0.2,VALID,100,VALID,0.0679233,VALID,20.6139,VALID,40,VALID,0
2009-05-04, 00:02:00,VALID,919.442,VALID,0,VALID,100,VALID,0.0339617,VALID,20.5917,VALID,40,VALID,0
2009-05-04, 00:03:00,VALID,919.446,VALID,0.2,VALID,100,VALID,0,VALID,20.5979,VALID,40,VALID,0
2009-05-04, 00:04:00,VALID,919.44,VALID,0,VALID,100,VALID,0,VALID,20.5855,VALID,40,VALID,0
2009-05-04, 00:05:00,VALID,919.426,VALID,0.2,VALID,100,VALID,0,VALID,20.5725,VALID,40,VALID,0
2009-05-04, 00:06:00,VALID,919.422,VALID,0,VALID,100,VALID,0,VALID,20.53,VALID,42,VALID,0
2009-05-04, 00:07:00,VALID,919.427,VALID,0.2,VALID,100,VALID,0.0509425,VALID,20.5138,VALID,51,VALID,0
2009-05-04, 00:08:00,VALID,919.427,VALID,0.2,VALID,100,VALID,0.0169808,VALID,20.517,VALID,53,VALID,0
2009-05-04, 00:09:00,VALID,919.42,VALID,0,VALID,100,VALID,-0.0679233,VALID,20.5216,VALID,52,VALID,0
2009-05-04, 00:10:00,VALID,919.421,VALID,0.2,VALID,100,VALID,-0.0509425,VALID,20.5216,VALID,46,VALID,0
2009-05-04, 00:11:00,VALID,919.401,VALID,0,VALID,100,VALID,-0.0509425,VALID,20.5181,VALID,42,VALID,0
2009-05-04, 00:12:00,VALID,919.39,VALID,0.2,VALID,100,VALID,-0.0679233,VALID,20.5348,VALID,32,VALID,0
2009-05-04, 00:13:00,VALID,919.369,VALID,0.2,VALID,100,VALID,-0.0679233,VALID,20.5218,VALID,43,VALID,0
2009-05-04, 00:14:00,VALID,919.335,VALID,0,VALID,100,VALID,-0.0339617,VALID,20.5056,VALID,51,VALID,0
2009-05-04, 00:15:00,VALID,919.321,VALID,0.2,VALID,100,VALID,-0.0509425,VALID,20.4961,VALID,58,VALID,0
2009-05-04, 00:16:00,VALID,919.312,VALID,0,VALID,100,VALID,-0.0849042,VALID,20.4954,VALID,57,VALID,0
2009-05-04, 00:17:00,VALID,919.301,VALID,0.2,VALID,100,VALID,-0.0849042,VALID,20.4924,VALID,51,VALID,0
2009-05-04, 00:18:00,VALID,919.293,VALID,0.2,VALID,100,VALID,-0.101885,VALID,20.5186,VALID,31,VALID,0
2009-05-04, 00:19:00,VALID,919.277,VALID,0,VALID,100,VALID,-0.101885,VALID,20.5251,VALID,31,VALID,0
2009-05-04, 00:20:00,VALID,919.267,VALID,0.2,VALID,100,VALID,-0.0849042,VALID,20.5768,VALID,41,VALID,0
2009-05-04, 00:21:00,VALID,919.25,VALID,0.2,VALID,100,VALID,-0.0339617,VALID,20.564,VALID,63,VALID,0
2009-05-04, 00:22:00,VALID,919.203,VALID,0,VALID,100,VALID,-0.0509425,VALID,20.5251,VALID,84,VALID,0
2009-05-04, 00:23:00,VALID,919.155,VALID,0.4,VALID,100,VALID,-0.101885,VALID,20.4921,VALID,102,VALID,0
2009-05-04, 00:24:00,VALID,919.099,VALID,0.2,VALID,100,VALID,-0.0849042,VALID,20.4667,VALID,97,VALID,0
2009-05-04, 00:25:00,VALID,919.062,VALID,0,VALID,100,VALID,-0.0849042,VALID,20.4369,VALID,71,VALID,0
2009-05-04, 00:26:00,VALID,919.019,VALID,0.2,VALID,100,VALID,-0.0169808,VALID,20.434,VALID,65,VALID,0
2009-05-04, 00:27:00,VALID,918.999,VALID,0,VALID,100,VALID,-0.0509425,VALID,20.4304,VALID,54,VALID,0
2009-05-04, 00:28:00,VALID,918.974,VALID,0.2,VALID,100,VALID,-0.0339617,VALID,20.4334,VALID,33,VALID,0
2009-05-04, 00:29:00,VALID,918.998,VALID,0,VALID,100,VALID,-0.0339617,VALID,20.4334,VALID,31,VALID,0
2009-05-04, 00:30:00,VALID,918.998,VALID,0.2,VALID,100,VALID,-0.0339617,VALID,20.4534,VALID,27,VALID,0
2009-05-04, 00:31:00,VALID,918.975,VALID,0,VALID,100,VALID,-0.0509425,VALID,20.4432,VALID,22,VALID,0
2009-05-04, 00:32:00,VALID,918.93,VALID,0.2,VALID,100,VALID,-0.0509425,VALID,20.421,VALID,28,VALID,0
2009-05-04, 00:33:00,VALID,918.917,VALID,0,VALID,100,VALID,-0.0509425,VALID,20.4112,VALID,40,VALID,0.135603
2009-05-04, 00:34:00,VALID,918.904,VALID,0.2,VALID,100,VALID,-0.0679233,VALID,20.3912,VALID,40,VALID,0
2009-05-04, 00:35:00,VALID,918.903,VALID,0,VALID,100,VALID,-0.0169808,VALID,20.372,VALID,39,VALID,0
2009-05-04, 00:36:00,VALID,918.89,VALID,0,VALID,100,VALID,-0.0339617,VALID,20.3426,VALID,48,VALID,0
2009-05-04, 00:37:00,VALID,918.87,VALID,0,VALID,100,VALID,0,VALID,20.3493,VALID,49,VALID,0.0580611
2009-05-04, 00:38:00,VALID,918.844,VALID,0,VALID,100,VALID,-0.0679233,VALID,20.3463,VALID,64,VALID,0
2009-05-04, 00:39:00,VALID,918.823,VALID,0.2,VALID,100,VALID,-0.0509425,VALID,20.3166,VALID,67,VALID,0.00136719
2009-05-04, 00:40:00,VALID,918.8,VALID,0,VALID,100,VALID,-0.0339617,VALID,20.3139,VALID,57,VALID,0
2009-05-04, 00:41:00,VALID,918.786,VALID,0,VALID,100,VALID,-0.0339617,VALID,20.3204,VALID,37,VALID,0
2009-05-04, 00:42:00,VALID,918.777,VALID,0,VALID,100,VALID,-0.0509425,VALID,20.3136,VALID,53,VALID,0.104492
2009-05-04, 00:43:00,VALID,918.766,VALID,0,VALID,100,VALID,-0.0679233,VALID,20.2979,VALID,31,VALID,0.0085747
2009-05-04, 00:44:00,VALID,918.762,VALID,0,VALID,100,VALID,-0.0849042,VALID,20.3009,VALID,31,VALID,0
2009-05-04, 00:45:00,VALID,918.742,VALID,0.2,VALID,100,VALID,-0.0339617,VALID,20.2912,VALID,25,VALID,0
2009-05-04, 00:46:00,VALID,918.706,VALID,0,VALID,100,VALID,-0.0509425,VALID,20.2587,VALID,36,VALID,0
2009-05-04, 00:47:00,VALID,918.659,VALID,0,VALID,100,VALID,-0.0849042,VALID,20.2649,VALID,33,VALID,0.270952
2009-05-04, 00:48:00,VALID,918.627,VALID,0,VALID,100,VALID,-0.0849042,VALID,20.2487,VALID,29,VALID,0.0806021
2009-05-04, 00:49:00,VALID,918.607,VALID,0,VALID,100,VALID,-0.0509425,VALID,20.2557,VALID,46,VALID,0
2009-05-04, 00:50:00,VALID,918.575,VALID,0,VALID,100,VALID,-0.0849042,VALID,20.2622,VALID,42,VALID,0.125727
2009-05-04, 00:51:00,VALID,918.546,VALID,0,VALID,100,VALID,-0.0849042,VALID,20.2395,VALID,37,VALID,0.027439
2009-05-04, 00:52:00,VALID,918.516,VALID,0.2,VALID,100,VALID,-0.0339617,VALID,20.2617,VALID,34,VALID,0
2009-05-04, 00:53:00,VALID,918.489,VALID,0,VALID,100,VALID,-0.0339617,VALID,20.2355,VALID,32,VALID,0
2009-05-04, 00:54:00,VALID,918.456,VALID,0,VALID,100,VALID,-0.0169808,VALID,20.2227,VALID,42,VALID,0
2009-05-04, 00:55:00,VALID,918.427,VALID,0,VALID,100,VALID,-0.0509425,VALID,20.2033,VALID,47,VALID,0
2009-05-04, 00:56:00,VALID,918.429,VALID,0,VALID,100,VALID,-0.0679233,VALID,20.203,VALID,49,VALID,0
2009-05-04, 00:57:00,VALID,918.429,VALID,0,VALID,100,VALID,0,VALID,20.187,VALID,38,VALID,0
2009-05-04, 00:58:00,VALID,918.42,VALID,0,VALID,100,VALID,-0.0339617,VALID,20.1771,VALID,35,VALID,0
2009-05-04, 00:59:00,VALID,918.394,VALID,0,VALID,100,VALID,-0.0679233,VALID,20.2063,VALID,37,VALID,0.00111607
2009-05-04, 01:00:00,VALID,918.377,VALID,0.2,VALID,100,VALID,-0.0849042,VALID,20.2425,VALID,30,VALID,0.044779
2009-05-04, 01:01:00,VALID,918.344,VALID,0,VALID,100,VALID,-0.101885,VALID,20.2362,VALID,22,VALID,0.00555556
2009-05-04, 01:02:00,VALID,918.344,VALID,0,VALID,100,VALID,-0.0509425,VALID,20.2292,VALID,11,VALID,0
2009-05-04, 01:03:00,VALID,918.333,VALID,0,VALID,100,VALID,-0.0849042,VALID,20.2425,VALID,3,VALID,0
2009-05-04, 01:04:00,VALID,918.314,VALID,0,VALID,100,VALID,-0.0509425,VALID,20.2357,VALID,360,VALID,0
2009-05-04, 01:05:00,VALID,918.31,VALID,0,VALID,100,VALID,-0.0849042,VALID,20.2192,VALID,7,VALID,0.101953
2009-05-04, 01:06:00,VALID,918.307,VALID,0,VALID,100,VALID,-0.0509425,VALID,20.2195,VALID,21,VALID,0.015997
2009-05-04, 01:07:00,VALID,918.298,VALID,0,VALID,100,VALID,-0.0339617,VALID,20.216,VALID,5,VALID,0.00133384
2009-05-04, 01:08:00,VALID,918.284,VALID,0,VALID,100,VALID,-0.0849042,VALID,20.2163,VALID,15,VALID,0
2009-05-04, 01:09:00,VALID,918.268,VALID,0.2,VALID,100,VALID,-0.0849042,VALID,20.2425,VALID,19,VALID,0
2009-05-04, 01:10:00,VALID,918.233,VALID,0,VALID,100,VALID,-0.0339617,VALID,20.2647,VALID,25,VALID,0
2009-05-04, 01:11:00,VALID,918.211,VALID,0,VALID,100,VALID,-0.0509425,VALID,20.2482,VALID,22,VALID,0.043968
2009-05-04, 01:12:00,VALID,918.18,VALID,0,VALID,100,VALID,-0.0679233,VALID,20.2679,VALID,9,VALID,0.00223214
2009-05-04, 01:13:00,VALID,918.161,VALID,0,VALID,100,VALID,-0.0169808,VALID,20.2485,VALID,353,VALID,0.158155
2009-05-04, 01:14:00,VALID,918.155,VALID,0,VALID,100,VALID,-0.0849042,VALID,20.2,VALID,5,VALID,0
2009-05-04, 01:15:00,VALID,918.147,VALID,0,VALID,100,VALID,-0.0169808,VALID,20.1441,VALID,18,VALID,0
2009-05-04, 01:16:00,VALID,918.129,VALID,0,VALID,100,VALID,-0.0679233,VALID,20.1776,VALID,18,VALID,0
2009-05-04, 01:17:00,VALID,918.091,VALID,0,VALID,100,VALID,-0.0509425,VALID,20.1903,VALID,32,VALID,0.0541548
2009-05-04, 01:18:00,VALID,918.043,VALID,0,VALID,100,VALID,-0.0339617,VALID,20.1968,VALID,38,VALID,0.00800305
2009-05-04, 01:19:00,VALID,918.041,VALID,0,VALID,100,VALID,-0.0339617,VALID,20.1968,VALID,6,VALID,0
2009-05-04, 01:20:00,VALID,918.058,VALID,0,VALID,100,VALID,-0.0679233,VALID,20.1965,VALID,342,VALID,0
2009-05-04, 01:21:00,VALID,918.055,VALID,0,VALID,100,VALID,-0.0509425,VALID,20.1608,VALID,341,VALID,0
2009-05-04, 01:22:00,VALID,918.033,VALID,0,VALID,100,VALID,-0.0509425,VALID,20.1551,VALID,20,VALID,0.204397
2009-05-04, 01:23:00,VALID,918.029,VALID,0,VALID,100,VALID,-0.0339617,VALID,20.1246,VALID,15,VALID,0.211979
2009-05-04, 01:24:00,VALID,918.022,VALID,0,VALID,100,VALID,-0.0339617,VALID,20.1154,VALID,357,VALID,0
2009-05-04, 01:25:00,VALID,918.03,VALID,0,VALID,100,VALID,-0.0849042,VALID,20.0992,VALID,349,VALID,0.000887784
2009-05-04, 01:26:00,VALID,918.021,VALID,0,VALID,100,VALID,-0.101885,VALID,20.0932,VALID,16,VALID,0.0396484
2009-05-04, 01:27:00,VALID,918.022,VALID,0,VALID,100,VALID,-0.0509425,VALID,20.0732,VALID,19,VALID,0
2009-05-04, 01:28:00,VALID,918.02,VALID,0,VALID,100,VALID,-0.0849042,VALID,20.0597,VALID,15,VALID,0
2009-05-04, 01:29:00,VALID,918.009,VALID,0,VALID,100,VALID,-0.0679233,VALID,20.0735,VALID,356,VALID,0
2009-05-04, 01:30:00,VALID,918.006,VALID,0,VALID,100,VALID,-0.0509425,VALID,20.0672,VALID,11,VALID,0
2009-05-04, 01:31:00,VALID,917.982,VALID,0,VALID,100,VALID,-0.0679233,VALID,20.0605,VALID,21,VALID,0
2009-05-04, 01:32:00,VALID,917.964,VALID,0,VALID,100,VALID,-0.0339617,VALID,20.0862,VALID,36,VALID,0
2009-05-04, 01:33:00,VALID,917.931,VALID,0,VALID,100,VALID,-0.0509425,VALID,20.1057,VALID,27,VALID,0.161519
2009-05-04, 01:34:00,VALID,917.923,VALID,0,VALID,100,VALID,-0.0339617,VALID,20.1214,VALID,27,VALID,0.00279018
2009-05-04, 01:35:00,VALID,917.888,VALID,0,VALID,100,VALID,-0.0849042,VALID,20.1514,VALID,27,VALID,0
2009-05-04, 01:36:00,VALID,917.87,VALID,0,VALID,100,VALID,-0.0509425,VALID,20.1803,VALID,26,VALID,0.00132979
2009-05-04, 01:37:00,VALID,917.854,VALID,0,VALID,100,VALID,-0.0679233,VALID,20.2028,VALID,26,VALID,0
2009-05-04, 01:38:00,VALID,917.843,VALID,0,VALID,100,VALID,-0.0169808,VALID,20.2255,VALID,28,VALID,0
2009-05-04, 01:39:00,VALID,917.827,VALID,0,VALID,100,VALID,-0.0509425,VALID,20.2225,VALID,32,VALID,0
2009-05-04, 01:40:00,VALID,917.814,VALID,0,VALID,100,VALID,-0.0509425,VALID,20.1633,VALID,23,VALID,0.0297965
2009-05-04, 01:41:00,VALID,917.813,VALID,0,VALID,100,VALID,-0.0169808,VALID,20.1216,VALID,16,VALID,0
2009-05-04, 01:42:00,VALID,917.809,VALID,0,VALID,100,VALID,-0.0509425,VALID,20.0922,VALID,20,VALID,0
2009-05-04, 01:43:00,VALID,917.801,VALID,0,VALID,100,VALID,-0.0509425,VALID,20.1119,VALID,20,VALID,0.21657
2009-05-04, 01:44:00,VALID,917.784,VALID,0,VALID,100,VALID,-0.0339617,VALID,20.0989,VALID,6,VALID,0
2009-05-04, 01:45:00,VALID,917.765,VALID,0,VALID,100,VALID,-0.0509425,VALID,20.0859,VALID,6,VALID,0.00642361
2009-05-04, 01:46:00,VALID,917.771,VALID,0,VALID,100,VALID,-0.0339617,VALID,20.0832,VALID,6,VALID,0.016369
2009-05-04, 01:47:00,VALID,917.765,VALID,0,VALID,100,VALID,-0.0679233,VALID,20.076,VALID,6,VALID,0
2009-05-04, 01:48:00,VALID,917.769,VALID,0,VALID,100,VALID,-0.0509425,VALID,20.0792,VALID,6,VALID,0
2009-05-04, 01:49:00,VALID,917.76,VALID,0,VALID,100,VALID,-0.0169808,VALID,20.0635,VALID,6,VALID,0
2009-05-04, 01:50:00,VALID,917.75,VALID,0,VALID,100,VALID,-0.0169808,VALID,20.0562,VALID,6,VALID,0
2009-05-04, 01:51:00,VALID,917.725,VALID,0,VALID,100,VALID,0,VALID,20.0765,VALID,6,VALID,0
2009-05-04, 01:52:00,VALID,917.724,VALID,0,VALID,100,VALID,-0.0169808,VALID,20.0792,VALID,6,VALID,0
2009-05-04, 01:53:00,VALID,917.687,VALID,0,VALID,100,VALID,-0.0679233,VALID,20.0992,VALID,6,VALID,0
2009-05-04, 01:54:00,VALID,917.673,VALID,0,VALID,100,VALID,-0.0169808,VALID,20.1116,VALID,18,VALID,0
2009-05-04, 01:55:00,VALID,917.644,VALID,0,VALID,100,VALID,-0.0509425,VALID,20.1314,VALID,28,VALID,0
2009-05-04, 01:56:00,VALID,917.608,VALID,0,VALID,100,VALID,-0.0509425,VALID,20.1511,VALID,28,VALID,0
2009-05-04, 01:57:00,VALID,917.585,VALID,0,VALID,100,VALID,-0.0339617,VALID,20.1508,VALID,28,VALID,0
2009-05-04, 01:58:00,VALID,917.562,VALID,0,VALID,100,VALID,-0.0169808,VALID,20.1246,VALID,22,VALID,0
2009-05-04, 01:59:00,VALID,917.535,VALID,0,VALID,100,VALID,-0.0849042,VALID,20.1189,VALID,26,VALID,0
2009-05-04, 02:00:00,VALID,917.501,VALID,0,VALID,100,VALID,-0.0679233,VALID,20.0927,VALID,20,VALID,0
2009-05-04, 02:01:00,VALID,917.486,VALID,0,VALID,100,VALID,-0.0679233,VALID,20.0999,VALID,19,VALID,0
2009-05-04, 02:02:00,VALID,917.471,VALID,0,VALID,100,VALID,-0.0169808,VALID,20.0702,VALID,15,VALID,0
2009-05-04, 02:03:00,VALID,917.428,VALID,0,VALID,100,VALID,-0.0509425,VALID,20.04,VALID,15,VALID,0
2009-05-04, 02:04:00,VALID,917.391,VALID,0,VALID,100,VALID,-0.0679233,VALID,20.0373,VALID,16,VALID,0.0175305
2009-05-04, 02:05:00,VALID,917.347,VALID,0,VALID,100,VALID,-0.0509425,VALID,20.0505,VALID,24,VALID,0.0102307
2009-05-04, 02:06:00,VALID,917.304,VALID,0,VALID,100,VALID,-0.0849042,VALID,20.0702,VALID,19,VALID,0.159896
2009-05-04, 02:07:00,VALID,917.262,VALID,0,VALID,100,VALID,-0.0679233,VALID,20.05,VALID,19,VALID,0
2009-05-04, 02:08:00,VALID,917.225,VALID,0,VALID,100,VALID,-0.0509425,VALID,20.0535,VALID,22,VALID,0
2009-05-04, 02:09:00,VALID,917.19,VALID,0,VALID,100,VALID,-0.0339617,VALID,20.0632,VALID,16,VALID,0
2009-05-04, 02:10:00,VALID,917.152,VALID,0,VALID,100,VALID,-0.0679233,VALID,20.0735,VALID,22,VALID,0
2009-05-04, 02:11:00,VALID,917.121,VALID,0,VALID,100,VALID,-0.0509425,VALID,20.0305,VALID,18,VALID,0
2009-05-04, 02:12:00,VALID,917.116,VALID,0,VALID,100,VALID,-0.0339617,VALID,20.024,VALID,22,VALID,0
2009-05-04, 02:13:00,VALID,917.085,VALID,0,VALID,100,VALID,0.0169808,VALID,20.0205,VALID,17,VALID,0
2009-05-04, 02:14:00,VALID,917.085,VALID,0,VALID,100,VALID,-0.0509425,VALID,20.0175,VALID,20,VALID,0
2009-05-04, 02:15:00,VALID,917.06,VALID,0,VALID,100,VALID,-0.0339617,VALID,20.0076,VALID,24,VALID,0
2009-05-04, 02:16:00,VALID,917.047,VALID,0,VALID,100,VALID,-0.0339617,VALID,20.0175,VALID,20,VALID,0.0012429
2009-05-04, 02:17:00,VALID,917.02,VALID,0,VALID,100,VALID,0,VALID,20.0108,VALID,28,VALID,0.00133384
2009-05-04, 02:18:00,VALID,917.008,VALID,0,VALID,100,VALID,-0.0339617,VALID,20.0208,VALID,26,VALID,0.00121528
2009-05-04, 02:19:00,VALID,917.005,VALID,0,VALID,100,VALID,-0.0509425,VALID,20.0243,VALID,25,VALID,0
2009-05-04, 02:20:00,VALID,916.987,VALID,0,VALID,100,VALID,-0.0169808,VALID,20.0178,VALID,27,VALID,0
2009-05-04, 02:21:00,VALID,916.984,VALID,0,VALID,100,VALID,-0.0339617,VALID,20.014,VALID,17,VALID,0.00111607
2009-05-04, 02:22:00,VALID,916.976,VALID,0,VALID,100,VALID,-0.0509425,VALID,19.9978,VALID,28,VALID,0.288876
2009-05-04, 02:23:00,VALID,916.978,VALID,0,VALID,100,VALID,0,VALID,19.9946,VALID,28,VALID,0.605841
2009-05-04, 02:24:00,VALID,916.97,VALID,0,VALID,100,VALID,-0.0339617,VALID,19.9621,VALID,30,VALID,0.175781
2009-05-04, 02:25:00,VALID,916.949,VALID,0,VALID,100,VALID,-0.0339617,VALID,19.9591,VALID,27,VALID,0.00099734
2009-05-04, 02:26:00,VALID,916.926,VALID,0,VALID,100,VALID,0,VALID,19.9556,VALID,26,VALID,0
2009-05-04, 02:27:00,VALID,916.932,VALID,0,VALID,100,VALID,-0.0339617,VALID,19.9689,VALID,32,VALID,0.00111607
2009-05-04, 02:28:00,VALID,916.891,VALID,0,VALID,100,VALID,0,VALID,19.9851,VALID,27,VALID,0.423735
2009-05-04, 02:29:00,VALID,916.882,VALID,0,VALID,100,VALID,-0.0509425,VALID,19.9686,VALID,29,VALID,0.450838
2009-05-04, 02:30:00,VALID,916.867,VALID,0,VALID,100,VALID,-0.0169808,VALID,19.9786,VALID,22,VALID,0.166109
2009-05-04, 02:31:00,VALID,916.864,VALID,0,VALID,100,VALID,-0.0339617,VALID,19.9756,VALID,23,VALID,0.046875
2009-05-04, 02:32:00,VALID,916.881,VALID,0,VALID,100,VALID,-0.0169808,VALID,19.9491,VALID,26,VALID,0.161776
2009-05-04, 02:33:00,VALID,916.873,VALID,0,VALID,100,VALID,-0.0169808,VALID,19.9199,VALID,31,VALID,0.131324
2009-05-04, 02:34:00,VALID,916.85,VALID,0,VALID,100,VALID,-0.0339617,VALID,19.9007,VALID,30,VALID,0.405878
2009-05-04, 02:35:00,VALID,916.835,VALID,0,VALID,100,VALID,-0.0509425,VALID,19.9204,VALID,33,VALID,0.0625
2009-05-04, 02:36:00,VALID,916.849,VALID,0,VALID,100,VALID,-0.0509425,VALID,19.9234,VALID,20,VALID,0.00546875
2009-05-04, 02:37:00,VALID,916.857,VALID,0,VALID,100,VALID,-0.0339617,VALID,19.9042,VALID,23,VALID,0.0168679
2009-05-04, 02:38:00,VALID,916.866,VALID,0,VALID,100,VALID,0,VALID,19.9002,VALID,27,VALID,0.0454545
2009-05-04, 02:39:00,VALID,916.871,VALID,0,VALID,100,VALID,-0.0679233,VALID,19.9102,VALID,28,VALID,0.00241815
2009-05-04, 02:40:00,VALID,916.878,VALID,0,VALID,100,VALID,0,VALID,19.9204,VALID,41,VALID,0
2009-05-04, 02:41:00,VALID,916.878,VALID,0,VALID,100,VALID,0,VALID,19.9491,VALID,32,VALID,0
2009-05-04, 02:42:00,VALID,916.886,VALID,0,VALID,100,VALID,-0.0169808,VALID,19.9561,VALID,23,VALID,0
2009-05-04, 02:43:00,VALID,916.916,VALID,0,VALID,100,VALID,-0.0169808,VALID,19.9589,VALID,23,VALID,0
2009-05-04, 02:44:00,VALID,916.934,VALID,0,VALID,100,VALID,0,VALID,19.9719,VALID,22,VALID,0
2009-05-04, 02:45:00,VALID,916.947,VALID,0,VALID,100,VALID,-0.0169808,VALID,19.9913,VALID,22,VALID,0
2009-05-04, 02:46:00,VALID,916.944,VALID,0,VALID,100,VALID,0,VALID,19.9946,VALID,22,VALID,0
2009-05-04, 02:47:00,VALID,916.964,VALID,0,VALID,100,VALID,-0.0339617,VALID,19.9816,VALID,22,VALID,0
2009-05-04, 02:48:00,VALID,916.972,VALID,0,VALID,100,VALID,-0.0339617,VALID,19.9818,VALID,22,VALID,0
2009-05-04, 02:49:00,VALID,916.985,VALID,0,VALID,100,VALID,-0.0169808,VALID,19.9816,VALID,24,VALID,0
2009-05-04, 02:50:00,VALID,916.967,VALID,0,VALID,100,VALID,-0.0849042,VALID,19.9766,VALID,38,VALID,0
2009-05-04, 02:51:00,VALID,916.966,VALID,0,VALID,100,VALID,-0.0849042,VALID,19.9397,VALID,43,VALID,0
2009-05-04, 02:52:00,VALID,916.963,VALID,0,VALID,100,VALID,-0.0509425,VALID,19.9526,VALID,43,VALID,0
2009-05-04, 02:53:00,VALID,916.955,VALID,0,VALID,100,VALID,-0.0339617,VALID,19.9851,VALID,28,VALID,0
2009-05-04, 02:54:00,VALID,916.954,VALID,0,VALID,100,VALID,-0.0509425,VALID,19.9754,VALID,5,VALID,0
2009-05-04, 02:55:00,VALID,916.932,VALID,0,VALID,100,VALID,-0.0169808,VALID,19.9851,VALID,7,VALID,0
2009-05-04, 02:56:00,VALID,916.928,VALID,0,VALID,100,VALID,-0.0169808,VALID,20.0046,VALID,8,VALID,0
2009-05-04, 02:57:00,VALID,916.915,VALID,0,VALID,100,VALID,0,VALID,19.9913,VALID,18,VALID,0
2009-05-04, 02:58:00,VALID,916.907,VALID,0,VALID,100,VALID,-0.0339617,VALID,20.0011,VALID,18,VALID,0
2009-05-04, 02:59:00,VALID,916.904,VALID,0,VALID,100,VALID,0,VALID,20.0076,VALID,32,VALID,0
2009-05-04, 03:00:00,VALID,916.886,VALID,0,VALID,100,VALID,0,VALID,20.0113,VALID,43,VALID,0
2009-05-04, 03:01:00,VALID,916.874,VALID,0,VALID,100,VALID,-0.0169808,VALID,19.9821,VALID,26,VALID,0
2009-05-04, 03:02:00,VALID,916.859,VALID,0,VALID,100,VALID,-0.0849042,VALID,19.9754,VALID,37,VALID,0
2009-05-04, 03:03:00,VALID,916.847,VALID,0,VALID,100,VALID,-0.0679233,VALID,19.9664,VALID,33,VALID,0.0625
2009-05-04, 03:04:00,VALID,916.866,VALID,0,VALID,100,VALID,-0.0509425,VALID,19.9462,VALID,18,VALID,0
2009-05-04, 03:05:00,VALID,916.882,VALID,0,VALID,100,VALID,-0.0509425,VALID,19.9394,VALID,32,VALID,0
2009-05-04, 03:06:00,VALID,916.896,VALID,0,VALID,100,VALID,-0.0849042,VALID,19.9434,VALID,23,VALID,0
2009-05-04, 03:07:00,VALID,916.924,VALID,0,VALID,100,VALID,-0.0339617,VALID,19.9204,VALID,21,VALID,0
2009-05-04, 03:08:00,VALID,916.939,VALID,0,VALID,100,VALID,-0.0339617,VALID,19.904,VALID,15,VALID,0
2009-05-04, 03:09:00,VALID,916.948,VALID,0,VALID,100,VALID,-0.0339617,VALID,19.9135,VALID,2,VALID,0
2009-05-04, 03:10:00,VALID,916.94,VALID,0,VALID,100,VALID,-0.0509425,VALID,19.9199,VALID,2,VALID,0
2009-05-04, 03:11:00,VALID,916.935,VALID,0,VALID,100,VALID,-0.0169808,VALID,19.9167,VALID,4,VALID,0
2009-05-04, 03:12:00,VALID,916.919,VALID,0,VALID,100,VALID,-0.0169808,VALID,19.9102,VALID,11,VALID,0
2009-05-04, 03:13:00,VALID,916.91,VALID,0,VALID,100,VALID,-0.0679233,VALID,19.901,VALID,359,VALID,0
2009-05-04, 03:14:00,VALID,916.9,VALID,0,VALID,100,VALID,0,VALID,19.8843,VALID,5,VALID,0.0743056
2009-05-04, 03:15:00,VALID,916.902,VALID,0,VALID,100,VALID,-0.0169808,VALID,19.881,VALID,5,VALID,0.049782
2009-05-04, 03:16:00,VALID,916.903,VALID,0,VALID,100,VALID,-0.0339617,VALID,19.8877,VALID,351,VALID,0.136979
2009-05-04, 03:17:00,VALID,916.898,VALID,0,VALID,100,VALID,-0.0339617,VALID,19.8615,VALID,20,VALID,0.43378
2009-05-04, 03:18:00,VALID,916.883,VALID,0,VALID,100,VALID,-0.0169808,VALID,19.8618,VALID,33,VALID,0.14226
2009-05-04, 03:19:00,VALID,916.877,VALID,0,VALID,100,VALID,0,VALID,19.8583,VALID,20,VALID,0.307413
2009-05-04, 03:20:00,VALID,916.879,VALID,0,VALID,100,VALID,-0.0339617,VALID,19.8585,VALID,4,VALID,0.0881177
2009-05-04, 03:21:00,VALID,916.88,VALID,0,VALID,100,VALID,-0.0339617,VALID,19.8521,VALID,3,VALID,0
2009-05-04, 03:22:00,VALID,916.874,VALID,0,VALID,100,VALID,-0.0679233,VALID,19.8358,VALID,360,VALID,0
2009-05-04, 03:23:00,VALID,916.893,VALID,0,VALID,100,VALID,-0.0509425,VALID,19.8231,VALID,8,VALID,0
2009-05-04, 03:24:00,VALID,916.887,VALID,0,VALID,100,VALID,-0.0169808,VALID,19.8258,VALID,34,VALID,0
2009-05-04, 03:25:00,VALID,916.893,VALID,0,VALID,100,VALID,-0.0679233,VALID,19.8356,VALID,14,VALID,0
2009-05-04, 03:26:00,VALID,916.896,VALID,0,VALID,100,VALID,-0.0169808,VALID,19.8391,VALID,3,VALID,0
2009-05-04, 03:27:00,VALID,916.883,VALID,0,VALID,100,VALID,-0.0339617,VALID,19.8458,VALID,2,VALID,0.0472561
2009-05-04, 03:28:00,VALID,916.867,VALID,0,VALID,100,VALID,-0.0339617,VALID,19.8296,VALID,7,VALID,0
2009-05-04, 03:29:00,VALID,916.865,VALID,0,VALID,100,VALID,-0.0679233,VALID,19.8328,VALID,12,VALID,0
2009-05-04, 03:30:00,VALID,916.859,VALID,0,VALID,100,VALID,-0.0339617,VALID,19.8291,VALID,31,VALID,0.240885
2009-05-04, 03:31:00,VALID,916.857,VALID,0,VALID,100,VALID,-0.0849042,VALID,19.8131,VALID,21,VALID,0
2009-05-04, 03:32:00,VALID,916.853,VALID,0,VALID,100,VALID,-0.0509425,VALID,19.8066,VALID,16,VALID,0.000181686
2009-05-04, 03:33:00,VALID,916.838,VALID,0,VALID,100,VALID,0,VALID,19.7999,VALID,20,VALID,0.0428779
2009-05-04, 03:34:00,VALID,916.815,VALID,0,VALID,100,VALID,-0.0509425,VALID,19.8034,VALID,36,VALID,0.131424
2009-05-04, 03:35:00,VALID,916.811,VALID,0,VALID,100,VALID,-0.0509425,VALID,19.8234,VALID,39,VALID,0
2009-05-04, 03:36:00,VALID,916.802,VALID,0,VALID,100,VALID,-0.0169808,VALID,19.8164,VALID,50,VALID,0.0907738
2009-05-04, 03:37:00,VALID,916.783,VALID,0,VALID,100,VALID,-0.0339617,VALID,19.8291,VALID,28,VALID,0.138808
2009-05-04, 03:38:00,VALID,916.775,VALID,0,VALID,100,VALID,-0.0169808,VALID,19.8491,VALID,12,VALID,0.0933949
2009-05-04, 03:39:00,VALID,916.757,VALID,0,VALID,100,VALID,-0.0339617,VALID,19.8258,VALID,17,VALID,0.142857
2009-05-04, 03:40:00,VALID,916.734,VALID,0,VALID,100,VALID,-0.0339617,VALID,19.8231,VALID,16,VALID,0.485764
2009-05-04, 03:41:00,VALID,916.716,VALID,0,VALID,100,VALID,0,VALID,19.8061,VALID,30,VALID,0.0989583
2009-05-04, 03:42:00,VALID,916.703,VALID,0,VALID,100,VALID,-0.0169808,VALID,19.8064,VALID,21,VALID,0.483507
2009-05-04, 03:43:00,VALID,916.7,VALID,0,VALID,100,VALID,-0.0169808,VALID,19.7931,VALID,21,VALID,0.791788
2009-05-04, 03:44:00,VALID,916.708,VALID,0,VALID,100,VALID,-0.0169808,VALID,19.8096,VALID,24,VALID,0.0777778
2009-05-04, 03:45:00,VALID,916.702,VALID,0,VALID,100,VALID,0,VALID,19.7999,VALID,13,VALID,0.00090843
2009-05-04, 03:46:00,VALID,916.688,VALID,0,VALID,100,VALID,-0.0339617,VALID,19.7902,VALID,16,VALID,0.21131
2009-05-04, 03:47:00,VALID,916.68,VALID,0,VALID,100,VALID,0,VALID,19.7934,VALID,24,VALID,0.59013
2009-05-04, 03:48:00,VALID,916.683,VALID,0,VALID,100,VALID,-0.0339617,VALID,19.7934,VALID,18,VALID,0.7629
2009-05-04, 03:49:00,VALID,916.664,VALID,0,VALID,100,VALID,-0.0169808,VALID,19.7904,VALID,24,VALID,1.22905